Location: ??????
(55.6500°N, 37.8000°E)
Time: 11:01:33
(UTC+00:00)

ALOS - Pass Details

Date: 14 April 2024
Orbit: 674 x 675 km, 98.0° (Epoch: 19 May)

Event Time Altitude Azimuth Distance (km) Brightness Sun altitude
Rises 01:38:09 0° 10° (N) 3,049 6.2 -7.0°
Reaches altitude 10° 01:40:34 10° 1° (N) 2,129 5.2 -6.7°
Maximum altitude 01:44:40 32° 299° (WNW) 1,169 3.2 -6.2°
Drops below altitude 10° 01:48:45 10° 237° (WSW) 2,115 4.1 -5.7°
Enters shadow 01:49:35 - 233° (SW) 2,421 4.4 -5.6°
